This is the latest recevied weather packets stored in our database for station/object K5NWZ. If no packets are shown the sender has not sent any weather packets the latest 10 day(s).
| Time | Temp. | Humidity | Pressure | Rain* | Wind** | Luminosity | Snow |
|---|---|---|---|---|---|---|---|
| 1777863668 | 16.67° C | 32% | 1019 hPa | 0 mm | - | 0 W/m² | - |
| 1777863364 | 17.22° C | 30% | 1019 hPa | 0 mm | - | 0 W/m² | - |
| 1777863061 | 17.22° C | 31% | 1018.8 hPa | 0 mm | - | 0 W/m² | - |
| 1777862758 | 17.78° C | 30% | 1018.7 hPa | 0 mm | - | 0 W/m² | - |
| 1777862455 | 17.78° C | 29% | 1018.8 hPa | 0 mm | - | 0 W/m² | - |
| 1777862151 | 17.78° C | 29% | 1018.9 hPa | 0 mm | - | 0 W/m² | - |
| 1777861847 | 18.33° C | 29% | 1018.8 hPa | 0 mm | - | 0 W/m² | - |
| 1777861543 | 18.33° C | 28% | 1018.9 hPa | 0 mm | - | 0 W/m² | - |
| 1777861241 | 18.89° C | 28% | 1018.9 hPa | 0 mm | - | 0 W/m² | - |
| 1777860938 | 18.89° C | 28% | 1018.9 hPa | 0 mm | - | 0 W/m² | - |
| 1777860635 | 18.89° C | 27% | 1018.8 hPa | 0 mm | - | 1 W/m² | - |
| 1777860332 | 19.44° C | 26% | 1018.9 hPa | 0 mm | - | 1 W/m² | - |
| 1777860028 | 20° C | 26% | 1018.7 hPa | 0 mm | - | 2 W/m² | - |
| 1777859724 | 20° C | 25% | 1018.5 hPa | 0 mm | - | 4 W/m² | - |
| 1777859420 | 20° C | 25% | 1018.7 hPa | 0 mm | - | 7 W/m² | - |
| 1777859117 | 20.56° C | 25% | 1018.8 hPa | 0 mm | - | 12 W/m² | - |
| 1777858814 | 20.56° C | 25% | 1018.4 hPa | 0 mm | - | 15 W/m² | - |
| 1777858512 | 20.56° C | 24% | 1018.7 hPa | 0 mm | - | 17 W/m² | - |
| 1777858209 | 20.56° C | 24% | 1018.5 hPa | 0 mm | - | 19 W/m² | - |
| 1777857906 | 21.11° C | 24% | 1018.8 hPa | 0 mm | - | 24 W/m² | - |
| 1777857604 | 21.11° C | 24% | 1018.8 hPa | 0 mm | - | 28 W/m² | - |
| 1777857300 | 20.56° C | 25% | 1018.9 hPa | 0 mm | - | 28 W/m² | - |
| 1777856995 | 20.56° C | 25% | 1018.9 hPa | 0 mm | - | 29 W/m² | - |
| 1777856692 | 20.56° C | 25% | 1018.7 hPa | 0 mm | - | 29 W/m² | - |
| 1777856388 | 20.56° C | 25% | 1019 hPa | 0 mm | - | 29 W/m² | - |
* Rain latest hour (hover to see other rain measurements)
** Current wind speed in m/s (hover to see current wind gust speed)